Weather in Managua

Nicaragua     12°08′41″N   86°16′13″W
temp.,
°C
wind,
m/s
gust,
m/s
humid.,
%
clouds,
%
prec.,
mm/h
press.,
hPa
HPBL,
m
1 march, mon
mon100:00+24e4107768 0.0 1012627
03:00+23ene5117777 0.0 1010865
06:00+23e487479 0.0 1012487
09:00+27ene712582 0.0 10131284
12:00+32ene811411 0.0 10111229
15:00+33ene911390 0.0 10081433
18:00+30ene611500 0.0 1009345
21:00+26e612680 0.0 1012837
2 march, tue
tue200:00+24e511750 0.0 1013790
03:00+22ese46860 0.0 1011303
06:00+22ese46880 0.0 1012320
09:00+28e69600 0.0 1013883
12:00+33e8114118 0.0 10111294
15:00+33e91138100 0.0 10081425
18:00+27ene81264100 0.0 1010969
21:00+25e61269100 0.0 1013920
3 march, wed
wed300:00+23e6117666 0.0 1013620
03:00+22e478346 0.0 1012319
06:00+21ene368765 0.0 1013247
09:00+27e69580 0.0 1015954
12:00+32e810435 0.0 10121240
15:00+33ene911400 0.0 10091417
18:00+29ene711530 0.0 1010411
21:00+26e610640 0.0 1013480
4 march, thu
thu400:00+24e511740 0.0 1014619
03:00+22ese46860 0.0 1013294
06:00+22e35870 0.0 1014223
09:00+28e69602 0.0 10161148
12:00+32e79411 0.0 10121269
15:00+33e89350 0.0 10101526
18:00+30e812470 0.0 1010421
21:00+26e612610 0.0 1013457
5 march, fri
fri500:00+24ese59680 0.0 1013473
03:00+22ese47780 0.0 1012230
06:00+20ese45870 0.0 1013175
09:00+25e57600 0.0 1014617
12:00+32e573416 0.0 10111119
15:00+34e78310 0.0 10081415
18:00+30e712410 0.0 1009308
21:00+26ese511590 0.0 1012335